Погода в Клаипеде

Поиск расширенной информации на нашем сайте:

Полезная информация:

Новости сайта



02.01.2020
Опубликован Долгосрочный прогноз погоды по городам России и ближнего зарубежья на январь 2020 года.
Карты: Прогноз на январь и февраль 2020 года, Сравнение прогнозируемой аномалии приземной температуры воздуха на январь 2020 года по разным моделям.




Погода в Клаипеде - сегодня

Время (UTC), дата Ветер
(°,м/с) 
Видим.   Явления Облачность Т
(°С)
Тd
(°С)
f(%) Тe
(°С)
Pmin
(гПа)
dP
(гПа)
Po
(мм)
O2
(г/м3)
Тmin Tmax R s Состояние
почвы
12 26.02.20 210 (ЮЗ) 7-13{13}  20000 м  в посл. час ливневой дождь  10/10 600 м кучево-дожд. 
[Cb calv]
+4.7 +0.6 75 +2  987.2  0.2  740  293      0.0     
15 26.02.20 240 (ЮЗ) 7-12{15}  19000 м  слаб. ливневой дождь  9/8 600 м кучево-дожд., средняя 
[Cb cap|Ac trans]
+3.4 +1.6 88 988.5  1.3  741  295           
18 26.02.20 240 (ЮЗ) 5-10{12}  20000 м  {ливн. осадки}  9/9 720 м 
[Cu Sc]
+3.5 -0.4 76 +1  989.8  1.3  742  295    +5.1     
21 26.02.20 250 (З) 6-11{11}  20000 м  слаб. ливневой дождь  10/10 750 м кучево-дожд. 
[Cb cap]
+2.6 +0.2 84 990.2  0.4  742  296           
00 27.02.20 240 (ЮЗ) 6-12{13}  20000 м  в посл. час ливневой дождь  6/6 540 м 
[Cu med, cong]
+2.3 -0.6 81 -1  990.3  0.1  742  297      0.4     
03 27.02.20 250 (З) 8-14{14}  18000 м  слаб. ливневой дождь  10/10 400 м кучево-дожд. 
[Cb cap]
+2.7 +1.4 91 -1  989.7  -0.6  742  296           
06 27.02.20 260 (З) 8-13{15}  20000 м  слаб. дождь{ливн. осадки}  10/10 660 м 
[Frnb|Ns]
+2.2 +0.2 87 -2  990.9  1.2  743  297  +2      влажная 
09 27.02.20 270 (З) 10-15{16}  12000 м  слаб. дождь{снег}  10/10 270 м 
[Frnb|Ns]
+2.5 +1.5 93 -2  991.9  743  297           
12 27.02.20 270 (З) 9-14{17}  20000 м  {снег, дождь}  10/10 540 м 
[Sc]
+2.6 -0.6 79 -1  993.5  1.6  744  297         
15 27.02.20 280 (З) 9-14{17}  20000 м  в посл. час дождь  10/10 700 м 
[Sc]
+2.4 -1.2 77 -2  994.4  0.9  745  298           
18 27.02.20 280 (З) 7-11{14}  20000 м  в посл. час ливневой дождь  10/10 930 м 
[Cu Sc]
+2.3 -0.8 80 -1  994.8  0.4  745  298    +2.7     
21 27.02.20 280 (З) 7-11{13}  20000 м  слаб. ливневой дождь  10/10 420 м кучево-дожд. 
[Cb cap]
+2.1 -0.1 85 -1  995.8  746  298           
00 28.02.20 290 (З) 6-11{13}  14000 м  слаб. ливневой дождь  10/10 300 м кучево-дожд. 
[Cb cap]
+1.5 -0.7 85 -2  997.6  1.8  748  300      0.5     
03 28.02.20 280 (З) 5-9{12}  20000 м  {ливн. осадки}  10/10 960 м 
[Cu Sc]
+2.3 -1.7 75 998.5  0.9  748  299           
06 28.02.20 320 (СЗ) 4-7{11}  18000 м  слаб. ливневой дождь  9/9 360 м кучево-дожд. 
[Cb cap]
+2 -0.2 85 999.9  1.4  749  300  +1.4    0.9    влажная 
09 28.02.20 320 (СЗ) 3-5{08}  20000 м  в посл. час ливневой снег  9/9 840 м кучево-дожд. 
[Cb calv]
+3.5 -0.4 76 +2  1002.5  2.6  751  299           
12 28.02.20 310 (СЗ) 5-10{10}  20000 м  в посл. час ливневой дождь  9/9 500 м кучево-дожд. 
[Cb calv]
+4 -0.9 70 +2  1004.7  2.2  753  299      0.1     
15 28.02.20 270 (З) 5-7{10}  20000 м  {ливн. осадки}  9/6 660 м верхняя 
[Cu med, cong|Cc]
+2.9 -1.1 75 1006.1  1.4  754  301           
18 28.02.20 220 (ЮЗ) 2-4{07}  20000 м  слаб. ливневой снег  9/5 240 м кучево-дожд., верхняя 
[Cb cap|Cc]
+1.5 -0.2 88 +1  1006.2  0.1  754  302    +5.1  0.1     
21 28.02.20 020 (С) 1-1{04}  7000 м  дымка{ливн. осадки, снег}  9/9 600 м 
[Sc diur, vesp]
+0.4 -0.3 95 +1  1006.3  0.1  754  303           
00 29.02.20 050 (СВ) 1-1{02}  10 км  {ливн. осадки, снег}  9/9 330 м 
[Cu med, cong]
-0.7 -1.3 96 1007.1  0.8  755  305      0.4     
03 29.02.20 250 (З) 4-7{07}  20000 м  в посл. час снег  10/10 870 м 
[Sc diur, vesp]
+1.4 +0.5 94 -1  1007.1  755  302           
06 29.02.20 230 (ЮЗ) 4-7{07}  20000 м  {снег}  9/4 840 м средняя 
[Cu med, cong|Ac As]
+3 -0.5 78 +1  1006.3  -0.8  754  301  -0.8    0.6    влажная 
09 29.02.20 200 (Ю) 4-6{08}  20000 м  {дождь}  8/3 270 м средняя 
[Sc|Ac und]
+4.6 +2 83 +3  1005.2  -1.1  753  298           
12 29.02.20 170 (Ю) 2-5{09}  20000 м  {дождь}  10/0 верхняя 
[Ci]
+5.9 +0.3 67 +6  1003.2  -2  752  296      0.0     
Время (UTC), дата Ветер
(°,м/с) 
Видим.   Явления Облачность Т
(°С)
Тd
(°С)
f(%) Тe
(°С)
Pmin
(гПа)
dP
(гПа)
Po
(мм)
O2
(г/м3)
Тmin Tmax R s Состояние
почвы

Для получения пояснительной информации подведите курсор к названию столбца.

ПОГОДА в Клаипеде - архив

Всё, что Вы хотите узнать о погоде в Клаипеде - удобно и подробно!

Выберите нужную дату (начиная с 1 января 2019* года) и нажмите кнопку "Найти".
Будут отображены архивные сводки погоды по пункту Клаипеда, начиная с указанной даты.


Отображать данные в формате CSV (для использования в таблицах Excel)


Внимание! Наш архив погоды предназначен исключительно для личного некоммерческого использования в познавательных целях. Если Вам необходимы официальные справки о состоянии погоды (для производственных, юридических, коммерческих и т.п. целей), обращайтесь в органы Росгидромета.

*Примечание: данная дата относится к архиву по метеостанциям СССР (Россия, СНГ, Балтия).
Архив по метеостанциям Зарубежной Европы и Азии (кроме Китая) хранится 10 дней, по другим регионам земного шара (Китай, Африка, Америка, Австралия, Океания) - 1 день.

Клаипеда - район местоположения метеостанции


Название, широта, долгота, высота метеостанции:
Клаипеда 55.7°ш. 21.1°д. 7 м над ур. моря [Литва]

Дополнительная информация

В oтличие oт бoльшинства пoгoдных сайтoв мы публикуем пoдрoбную метеoинфoрмацию в детальнoм прoфессиoнальнoм фoрмате.

Характеристики температуры и влажнoсти вoздуха измеряются на высoте 2 м в тени вдали oт зданий и деревьев.
Скoрoсть ветра измеряется на высoте 10 м (на урoвне рoста челoвека скoрoсть ветра ниже в 1.5-2 раза). Если метеoстанция нахoдится в гoрoде или в лесу, тo скoрoсть ветра занижена на 2-4 м/с пo сравнению с oткрытым местoм. Скoрoсть ветра над акватoриями крупных рек и oзёр, а также на вершинах хoлмoв на 2-5 м/с выше, чем в oбычных услoвиях.
Атмoсфернoе давление в разных тoчках местнoсти мoжет значительнo oтличаться oт давления на метеoстанции, в зависимoсти oт услoвий рельефа (при пoдъёме на 10 м давление пoнижается примернo на 1 мм рт.ст.).